TimeEDT,TemperatureF,Dew PointF,Humidity,Sea Level PressureIn,VisibilityMPH,Wind Direction,Wind SpeedMPH,Gust SpeedMPH,PrecipitationIn,Events,Conditions,WindDirDegrees,DateUTC
12:15 AM,30.2,28.2,92,29.90,10.0,Calm,Calm,-,N/A,,Overcast,0,2014-03-16 04:15:00
12:35 AM,30.2,19.8,65,29.91,10.0,WSW,9.2,-,N/A,,Overcast,250,2014-03-16 04:35:00
12:55 AM,29.1,17.2,61,29.92,10.0,WSW,6.9,17.3,N/A,,Overcast,250,2014-03-16 04:55:00
1:15 AM,28.4,16.5,61,29.93,10.0,West,5.8,-,N/A,,Overcast,270,2014-03-16 05:15:00
1:35 AM,26.8,21.2,79,29.94,10.0,West,8.1,-,N/A,,Overcast,280,2014-03-16 05:35:00
2:15 AM,24.8,16.9,72,29.96,10.0,WNW,11.5,-,N/A,,Overcast,290,2014-03-16 06:15:00
2:35 AM,24.6,15.1,67,29.97,10.0,WNW,9.2,17.3,N/A,,Overcast,300,2014-03-16 06:35:00
2:55 AM,24.4,14.9,67,29.98,10.0,WNW,8.1,16.1,N/A,,Overcast,290,2014-03-16 06:55:00
3:20 AM,23.0,14.2,69,29.98,10.0,WNW,10.4,-,N/A,,Overcast,300,2014-03-16 07:20:00
3:35 AM,22.6,13.1,67,29.99,10.0,NW,10.4,16.1,N/A,,Overcast,310,2014-03-16 07:35:00
3:55 AM,22.1,13.1,68,30.00,10.0,WNW,9.2,16.1,N/A,,Overcast,300,2014-03-16 07:55:00
4:15 AM,21.7,13.6,71,30.01,10.0,WNW,5.8,-,N/A,,Overcast,290,2014-03-16 08:15:00
4:35 AM,21.4,12.2,68,30.02,10.0,West,4.6,-,N/A,,Overcast,280,2014-03-16 08:35:00
5:15 AM,19.8,5.7,55,30.05,10.0,West,6.9,-,N/A,,Mostly Cloudy,280,2014-03-16 09:15:00
5:35 AM,19.2,5.2,54,30.06,10.0,WNW,8.1,-,N/A,,Overcast,290,2014-03-16 09:35:00
5:55 AM,18.9,4.3,53,30.07,10.0,WNW,6.9,-,N/A,,Overcast,300,2014-03-16 09:55:00
6:15 AM,18.3,2.5,50,30.07,10.0,West,6.9,-,N/A,,Overcast,280,2014-03-16 10:15:00
6:35 AM,17.6,3.9,55,30.08,10.0,NW,9.2,-,N/A,,Overcast,310,2014-03-16 10:35:00
6:55 AM,16.7,3.4,56,30.09,10.0,WNW,9.2,-,N/A,,Overcast,300,2014-03-16 10:55:00
7:15 AM,15.8,2.3,55,30.11,10.0,WNW,9.2,-,N/A,,Scattered Clouds,300,2014-03-16 11:15:00
7:35 AM,14.9,2.3,57,30.12,10.0,WNW,10.4,-,N/A,,Scattered Clouds,300,2014-03-16 11:35:00
8:15 AM,14.7,0.5,53,30.14,10.0,NW,12.7,18.4,N/A,,Mostly Cloudy,310,2014-03-16 12:15:00
8:35 AM,14.7,0.7,54,30.14,10.0,WNW,10.4,17.3,N/A,,Mostly Cloudy,300,2014-03-16 12:35:00
8:55 AM,15.1,2.3,57,30.14,10.0,NW,11.5,16.1,N/A,,Overcast,310,2014-03-16 12:55:00
9:15 AM,14.9,3.2,60,30.16,10.0,NW,11.5,18.4,N/A,,Overcast,320,2014-03-16 13:15:00
9:35 AM,15.3,1.6,55,30.16,10.0,NNW,10.4,17.3,N/A,,Overcast,330,2014-03-16 13:35:00
9:55 AM,14.9,1.2,55,30.18,10.0,NW,8.1,18.4,N/A,,Overcast,320,2014-03-16 13:55:00
10:15 AM,14.9,2.5,58,30.19,10.0,WNW,10.4,-,N/A,,Overcast,290,2014-03-16 14:15:00
10:35 AM,14.9,3.0,59,30.19,10.0,WNW,10.4,-,N/A,,Overcast,290,2014-03-16 14:35:00
10:55 AM,15.4,2.1,56,30.19,10.0,WNW,9.2,-,N/A,,Overcast,290,2014-03-16 14:55:00
11:15 AM,15.6,2.1,55,30.19,10.0,West,11.5,-,N/A,,Overcast,280,2014-03-16 15:15:00
11:35 AM,15.8,1.9,54,30.20,10.0,WNW,9.2,16.1,N/A,,Overcast,290,2014-03-16 15:35:00
11:55 AM,15.8,0.5,51,30.19,10.0,WNW,8.1,-,N/A,,Overcast,300,2014-03-16 15:55:00
12:15 PM,16.7,0.3,49,30.19,10.0,WNW,10.4,-,N/A,,Overcast,300,2014-03-16 16:15:00
12:35 PM,16.9,-0.0,48,30.19,10.0,West,10.4,-,N/A,,Overcast,280,2014-03-16 16:35:00
12:55 PM,17.4,0.3,47,30.19,10.0,West,8.1,-,N/A,,Overcast,280,2014-03-16 16:55:00
1:15 PM,17.6,1.2,49,30.19,10.0,WNW,9.2,-,N/A,,Overcast,290,2014-03-16 17:15:00
1:35 PM,17.8,0.7,47,30.19,10.0,West,5.8,-,N/A,,Overcast,280,2014-03-16 17:35:00
1:55 PM,18.0,0.5,47,30.18,10.0,WNW,6.9,-,N/A,,Overcast,300,2014-03-16 17:55:00
2:15 PM,18.0,-0.0,45,30.18,10.0,WNW,11.5,17.3,N/A,,Overcast,290,2014-03-16 18:15:00
2:55 PM,18.5,0.5,45,30.18,10.0,WNW,9.2,-,N/A,,Overcast,300,2014-03-16 18:55:00
3:15 PM,18.3,-0.0,45,30.18,10.0,NW,8.1,-,N/A,,Overcast,310,2014-03-16 19:15:00
3:35 PM,18.5,-0.4,44,30.18,10.0,WNW,9.2,-,N/A,,Overcast,300,2014-03-16 19:35:00
3:55 PM,18.1,-1.5,42,30.18,10.0,NNW,10.4,16.1,N/A,,Overcast,330,2014-03-16 19:55:00
4:15 PM,18.3,-1.7,42,30.18,10.0,WNW,5.8,-,N/A,,Overcast,300,2014-03-16 20:15:00
4:35 PM,18.5,-2.0,41,30.19,10.0,NW,6.9,-,N/A,,Mostly Cloudy,310,2014-03-16 20:35:00
4:55 PM,18.7,-2.6,39,30.19,10.0,West,6.9,-,N/A,,Scattered Clouds,280,2014-03-16 20:55:00
5:15 PM,18.1,-2.6,40,30.19,10.0,WNW,8.1,-,N/A,,Mostly Cloudy,300,2014-03-16 21:15:00
5:35 PM,17.8,-2.6,41,30.19,10.0,WNW,8.1,-,N/A,,Overcast,290,2014-03-16 21:35:00
5:55 PM,17.1,-2.9,41,30.19,10.0,NW,11.5,18.4,N/A,,Scattered Clouds,310,2014-03-16 21:55:00
6:15 PM,16.7,-2.9,42,30.19,10.0,WNW,11.5,-,N/A,,Clear,290,2014-03-16 22:15:00
6:35 PM,16.3,-4.0,41,30.19,10.0,WNW,9.2,-,N/A,,Scattered Clouds,300,2014-03-16 22:35:00
6:55 PM,15.3,-4.4,42,30.18,10.0,WNW,6.9,-,N/A,,Clear,300,2014-03-16 22:55:00
7:15 PM,15.1,-5.3,40,30.17,10.0,NW,6.9,-,N/A,,Clear,320,2014-03-16 23:15:00
7:35 PM,14.7,-5.4,41,30.19,10.0,NW,9.2,-,N/A,,Clear,310,2014-03-16 23:35:00
7:55 PM,13.3,-5.3,44,30.21,10.0,NW,5.8,-,N/A,,Clear,310,2014-03-16 23:55:00
8:15 PM,13.1,-5.6,43,30.21,10.0,WNW,8.1,-,N/A,,Clear,300,2014-03-17 00:15:00
8:35 PM,12.0,-5.6,45,30.21,10.0,WNW,6.9,-,N/A,,Clear,300,2014-03-17 00:35:00
8:55 PM,12.6,-5.8,44,30.22,10.0,NW,8.1,-,N/A,,Clear,310,2014-03-17 00:55:00
9:15 PM,12.4,-6.0,44,30.22,10.0,WNW,9.2,-,N/A,,Clear,300,2014-03-17 01:15:00
9:35 PM,12.0,-6.2,44,30.22,10.0,NW,6.9,-,N/A,,Clear,320,2014-03-17 01:35:00
9:55 PM,11.8,-7.2,42,30.23,10.0,WNW,8.1,-,N/A,,Clear,290,2014-03-17 01:55:00
10:15 PM,11.3,-7.6,43,30.23,10.0,West,4.6,-,N/A,,Clear,260,2014-03-17 02:15:00
10:35 PM,9.9,-7.8,45,30.24,10.0,Calm,Calm,-,N/A,,Clear,0,2014-03-17 02:35:00
10:55 PM,7.3,-7.1,52,30.23,10.0,Calm,Calm,-,N/A,,Clear,0,2014-03-17 02:55:00
11:15 PM,6.6,-6.9,54,30.23,10.0,Calm,Calm,-,N/A,,Clear,0,2014-03-17 03:15:00
11:35 PM,5.5,-6.0,59,30.22,10.0,Calm,Calm,-,N/A,,Clear,0,2014-03-17 03:35:00
11:55 PM,6.1,-6.2,57,30.22,10.0,Calm,Calm,-,N/A,,Clear,0,2014-03-17 03:55:00